Time,TemperatureF,DewpointF,PressureIn,WindDirection,WindDirectionDegrees,WindSpeedMPH,WindSpeedGustMPH,Humidity,HourlyPrecipIn,Conditions,Clouds,dailyrainin,SoftwareType,DateUTC
2013-04-11 00:04:00,70.0,15.1,0.00,North,0,0.0,0.0,12,0.00,,,0.00,VWS V13.01,2013-04-11 04:04:00,
2013-04-11 00:09:00,71.2,16.1,0.00,North,0,0.0,0.0,12,0.00,,,0.00,VWS V13.01,2013-04-11 04:09:00,
2013-04-11 00:14:00,71.1,15.9,0.00,North,0,0.0,0.0,12,0.00,,,0.00,VWS V13.01,2013-04-11 04:14:00,
2013-04-11 00:19:00,71.4,16.2,0.00,North,0,0.0,0.0,12,0.00,,,0.00,VWS V13.01,2013-04-11 04:19:00,
2013-04-11 00:24:00,73.0,15.5,0.00,North,0,0.0,0.0,11,0.00,,,0.00,VWS V13.01,2013-04-11 04:24:00,
2013-04-11 00:29:00,73.4,15.7,0.00,North,0,0.0,0.0,11,0.00,,,0.00,VWS V13.01,2013-04-11 04:29:00,
2013-04-11 00:34:00,73.9,16.1,0.00,North,0,0.0,0.0,11,0.00,,,0.00,VWS V13.01,2013-04-11 04:34:00,
2013-04-11 00:39:00,74.7,16.7,0.00,North,0,0.0,0.0,11,0.00,,,0.00,VWS V13.01,2013-04-11 04:39:00,
2013-04-11 00:44:00,75.0,17.0,0.00,North,0,0.0,0.0,11,0.00,,,0.00,VWS V13.01,2013-04-11 04:44:00,
2013-04-11 00:49:00,75.4,15.1,0.00,North,0,0.0,0.0,10,0.00,,,0.00,VWS V13.01,2013-04-11 04:49:00,
2013-04-11 00:54:00,74.8,16.9,0.00,North,0,0.0,0.0,11,0.00,,,0.00,VWS V13.01,2013-04-11 04:54:00,
2013-04-11 00:59:00,75.2,14.9,0.00,North,0,0.0,0.0,10,0.00,,,0.00,VWS V13.01,2013-04-11 04:59:00,
2013-04-11 01:04:00,75.4,15.1,0.00,North,0,0.0,0.0,10,0.00,,,0.00,VWS V13.01,2013-04-11 05:04:00,
2013-04-11 01:09:00,75.0,17.0,0.00,North,0,0.0,0.0,11,0.00,,,0.00,VWS V13.01,2013-04-11 05:09:00,
2013-04-11 01:14:00,75.2,14.9,0.00,North,0,0.0,0.0,10,0.00,,,0.00,VWS V13.01,2013-04-11 05:14:00,
2013-04-11 01:19:00,75.7,15.4,0.00,North,0,0.0,0.0,10,0.00,,,0.00,VWS V13.01,2013-04-11 05:19:00,
2013-04-11 01:24:00,75.9,15.5,0.00,North,0,0.0,0.0,10,0.00,,,0.00,VWS V13.01,2013-04-11 05:24:00,
2013-04-11 01:29:00,76.1,15.6,0.00,North,0,0.0,0.0,10,0.00,,,0.00,VWS V13.01,2013-04-11 05:29:00,
2013-04-11 01:34:00,75.7,15.4,0.00,North,0,0.0,0.0,10,0.00,,,0.00,VWS V13.01,2013-04-11 05:34:00,
2013-04-11 01:39:00,75.7,15.4,0.00,North,0,0.0,0.0,10,0.00,,,0.00,VWS V13.01,2013-04-11 05:39:00,
2013-04-11 01:44:00,75.9,15.5,0.00,North,0,0.0,0.0,10,0.00,,,0.00,VWS V13.01,2013-04-11 05:44:00,
2013-04-11 01:49:00,75.7,15.4,0.00,North,0,0.0,0.0,10,0.00,,,0.00,VWS V13.01,2013-04-11 05:49:00,
2013-04-11 01:54:00,75.4,15.1,0.00,North,0,0.0,0.0,10,0.00,,,0.00,VWS V13.01,2013-04-11 05:54:00,
2013-04-11 01:59:00,75.0,17.0,0.00,North,0,0.0,0.0,11,0.00,,,0.00,VWS V13.01,2013-04-11 05:59:00,
2013-04-11 02:04:00,74.7,16.7,0.00,North,0,0.0,0.0,11,0.00,,,0.00,VWS V13.01,2013-04-11 06:04:00,
2013-04-11 02:09:00,74.8,16.9,0.00,North,0,0.0,0.0,11,0.00,,,0.00,VWS V13.01,2013-04-11 06:09:00,
2013-04-11 02:14:00,73.8,16.0,0.00,North,0,0.0,0.0,11,0.00,,,0.00,VWS V13.01,2013-04-11 06:14:00,
2013-04-11 02:19:00,74.1,16.3,0.00,North,0,0.0,0.0,11,0.00,,,0.00,VWS V13.01,2013-04-11 06:19:00,
2013-04-11 02:24:00,74.5,16.6,0.00,North,0,0.0,0.0,11,0.00,,,0.00,VWS V13.01,2013-04-11 06:24:00,
2013-04-11 02:29:00,73.8,16.0,0.00,North,0,0.0,0.0,11,0.00,,,0.00,VWS V13.01,2013-04-11 06:29:00,
2013-04-11 02:34:00,73.4,15.7,0.00,North,0,0.0,0.0,11,0.00,,,0.00,VWS V13.01,2013-04-11 06:34:00,
2013-04-11 02:39:00,74.1,16.3,0.00,North,0,0.0,0.0,11,0.00,,,0.00,VWS V13.01,2013-04-11 06:39:00,
2013-04-11 02:44:00,74.7,16.7,0.00,North,0,0.0,0.0,11,0.00,,,0.00,VWS V13.01,2013-04-11 06:44:00,
2013-04-11 02:49:00,75.2,14.9,0.00,North,0,0.0,0.0,10,0.00,,,0.00,VWS V13.01,2013-04-11 06:49:00,
2013-04-11 02:54:00,75.0,17.0,0.00,North,0,0.0,0.0,11,0.00,,,0.00,VWS V13.01,2013-04-11 06:54:00,
2013-04-11 02:59:00,74.8,16.9,0.00,North,0,0.0,0.0,11,0.00,,,0.00,VWS V13.01,2013-04-11 06:59:00,
2013-04-11 03:04:00,75.0,17.0,0.00,North,0,0.0,0.0,11,0.00,,,0.00,VWS V13.01,2013-04-11 07:04:00,
2013-04-11 03:09:00,75.2,14.9,0.00,North,0,0.0,0.0,10,0.00,,,0.00,VWS V13.01,2013-04-11 07:09:00,
2013-04-11 03:14:00,75.0,17.0,0.00,North,0,0.0,0.0,11,0.00,,,0.00,VWS V13.01,2013-04-11 07:14:00,
2013-04-11 03:19:00,75.0,17.0,0.00,North,0,0.0,0.0,11,0.00,,,0.00,VWS V13.01,2013-04-11 07:19:00,
2013-04-11 03:24:00,75.2,14.9,0.00,North,0,0.0,0.0,10,0.00,,,0.00,VWS V13.01,2013-04-11 07:24:00,
2013-04-11 03:29:00,75.4,15.1,0.00,North,0,0.0,0.0,10,0.00,,,0.00,VWS V13.01,2013-04-11 07:29:00,
2013-04-11 03:34:00,75.6,15.2,0.00,North,0,0.0,0.0,10,0.00,,,0.00,VWS V13.01,2013-04-11 07:34:00,
2013-04-11 03:39:00,75.9,15.5,0.00,North,0,0.0,0.0,10,0.00,,,0.00,VWS V13.01,2013-04-11 07:39:00,
2013-04-11 03:44:00,75.9,15.5,0.00,North,0,0.0,0.0,10,0.00,,,0.00,VWS V13.01,2013-04-11 07:44:00,
2013-04-11 03:49:00,75.6,15.2,0.00,North,0,0.0,0.0,10,0.00,,,0.00,VWS V13.01,2013-04-11 07:49:00,
2013-04-11 03:54:00,75.7,15.4,0.00,North,0,0.0,0.0,10,0.00,,,0.00,VWS V13.01,2013-04-11 07:54:00,
2013-04-11 03:59:00,75.7,15.4,0.00,North,0,0.0,0.0,10,0.00,,,0.00,VWS V13.01,2013-04-11 07:59:00,
2013-04-11 04:04:00,75.7,15.4,0.00,North,0,0.0,0.0,10,0.00,,,0.00,VWS V13.01,2013-04-11 08:04:00,
2013-04-11 04:09:00,75.7,15.4,0.00,North,0,0.0,0.0,10,0.00,,,0.00,VWS V13.01,2013-04-11 08:09:00,
2013-04-11 04:14:00,75.7,15.4,0.00,North,0,0.0,0.0,10,0.00,,,0.00,VWS V13.01,2013-04-11 08:14:00,
2013-04-11 04:19:00,75.6,15.2,0.00,North,0,0.0,0.0,10,0.00,,,0.00,VWS V13.01,2013-04-11 08:19:00,
2013-04-11 04:24:00,75.6,15.2,0.00,North,0,0.0,0.0,10,0.00,,,0.00,VWS V13.01,2013-04-11 08:24:00,
2013-04-11 04:29:00,75.4,15.1,0.00,North,0,0.0,0.0,10,0.00,,,0.00,VWS V13.01,2013-04-11 08:29:00,
2013-04-11 04:34:00,75.4,15.1,0.00,North,0,0.0,0.0,10,0.00,,,0.00,VWS V13.01,2013-04-11 08:34:00,
2013-04-11 04:39:00,75.2,14.9,0.00,North,0,0.0,0.0,10,0.00,,,0.00,VWS V13.01,2013-04-11 08:39:00,
2013-04-11 04:44:00,74.8,16.9,0.00,North,0,0.0,0.0,11,0.00,,,0.00,VWS V13.01,2013-04-11 08:44:00,
2013-04-11 04:49:00,74.8,16.9,0.00,North,0,0.0,0.0,11,0.00,,,0.00,VWS V13.01,2013-04-11 08:49:00,
2013-04-11 04:54:00,74.8,16.9,0.00,North,0,0.0,0.0,11,0.00,,,0.00,VWS V13.01,2013-04-11 08:54:00,
2013-04-11 04:59:00,74.7,16.7,0.00,North,0,0.0,0.0,11,0.00,,,0.00,VWS V13.01,2013-04-11 08:59:00,
2013-04-11 05:04:00,74.7,16.7,0.00,North,0,0.0,0.0,11,0.00,,,0.00,VWS V13.01,2013-04-11 09:04:00,
2013-04-11 05:09:00,74.5,16.6,0.00,North,0,0.0,0.0,11,0.00,,,0.00,VWS V13.01,2013-04-11 09:09:00,
2013-04-11 05:14:00,74.5,16.6,0.00,North,0,0.0,0.0,11,0.00,,,0.00,VWS V13.01,2013-04-11 09:14:00,
2013-04-11 05:19:00,74.1,16.3,0.00,North,0,0.0,0.0,11,0.00,,,0.00,VWS V13.01,2013-04-11 09:19:00,
2013-04-11 05:24:00,73.9,16.1,0.00,North,0,0.0,0.0,11,0.00,,,0.00,VWS V13.01,2013-04-11 09:24:00,
2013-04-11 05:29:00,73.8,16.0,0.00,North,0,0.0,0.0,11,0.00,,,0.00,VWS V13.01,2013-04-11 09:29:00,
2013-04-11 05:34:00,73.6,15.9,0.00,North,0,0.0,0.0,11,0.00,,,0.00,VWS V13.01,2013-04-11 09:34:00,
2013-04-11 05:39:00,73.4,15.7,0.00,North,0,0.0,0.0,11,0.00,,,0.00,VWS V13.01,2013-04-11 09:39:00,
2013-04-11 05:44:00,73.4,15.7,0.00,North,0,0.0,0.0,11,0.00,,,0.00,VWS V13.01,2013-04-11 09:44:00,
2013-04-11 05:49:00,73.6,15.9,0.00,North,0,0.0,0.0,11,0.00,,,0.00,VWS V13.01,2013-04-11 09:49:00,
2013-04-11 05:54:00,73.6,15.9,0.00,North,0,0.0,0.0,11,0.00,,,0.00,VWS V13.01,2013-04-11 09:54:00,
2013-04-11 05:59:00,73.9,16.1,0.00,North,0,0.0,0.0,11,0.00,,,0.00,VWS V13.01,2013-04-11 09:59:00,
2013-04-11 06:04:00,73.9,16.1,0.00,North,0,0.0,0.0,11,0.00,,,0.00,VWS V13.01,2013-04-11 10:04:00,
2013-04-11 06:09:00,73.9,16.1,0.00,North,0,0.0,0.0,11,0.00,,,0.00,VWS V13.01,2013-04-11 10:09:00,
2013-04-11 06:14:00,73.8,16.0,0.00,North,0,0.0,0.0,11,0.00,,,0.00,VWS V13.01,2013-04-11 10:14:00,
2013-04-11 06:19:00,73.6,15.9,0.00,North,0,0.0,0.0,11,0.00,,,0.00,VWS V13.01,2013-04-11 10:19:00,
2013-04-11 06:24:00,73.6,15.9,0.00,North,0,0.0,0.0,11,0.00,,,0.00,VWS V13.01,2013-04-11 10:24:00,
2013-04-11 06:29:00,73.6,15.9,0.00,North,0,0.0,0.0,11,0.00,,,0.00,VWS V13.01,2013-04-11 10:29:00,
2013-04-11 06:34:00,73.6,15.9,0.00,North,0,0.0,0.0,11,0.00,,,0.00,VWS V13.01,2013-04-11 10:34:00,
2013-04-11 06:39:00,73.6,15.9,0.00,North,0,0.0,0.0,11,0.00,,,0.00,VWS V13.01,2013-04-11 10:39:00,
2013-04-11 06:44:00,73.6,15.9,0.00,North,0,0.0,0.0,11,0.00,,,0.00,VWS V13.01,2013-04-11 10:44:00,
2013-04-11 06:49:00,73.6,15.9,0.00,North,0,0.0,0.0,11,0.00,,,0.00,VWS V13.01,2013-04-11 10:49:00,
2013-04-11 06:54:00,73.6,15.9,0.00,North,0,0.0,0.0,11,0.00,,,0.00,VWS V13.01,2013-04-11 10:54:00,
2013-04-11 06:59:00,73.6,15.9,0.00,North,0,0.0,0.0,11,0.00,,,0.00,VWS V13.01,2013-04-11 10:59:00,
2013-04-11 07:04:00,73.4,15.7,0.00,North,0,0.0,0.0,11,0.00,,,0.00,VWS V13.01,2013-04-11 11:04:00,
2013-04-11 07:09:00,73.4,15.7,0.00,North,0,0.0,0.0,11,0.00,,,0.00,VWS V13.01,2013-04-11 11:09:00,
2013-04-11 07:14:00,73.4,15.7,0.00,North,0,0.0,0.0,11,0.00,,,0.00,VWS V13.01,2013-04-11 11:14:00,
2013-04-11 07:19:00,73.4,15.7,0.00,North,0,0.0,0.0,11,0.00,,,0.00,VWS V13.01,2013-04-11 11:19:00,
2013-04-11 07:24:00,73.2,15.6,0.00,North,0,0.0,0.0,11,0.00,,,0.00,VWS V13.01,2013-04-11 11:24:00,
2013-04-11 07:29:00,73.2,15.6,0.00,North,0,0.0,0.0,11,0.00,,,0.00,VWS V13.01,2013-04-11 11:29:00,
2013-04-11 07:34:00,73.4,15.7,0.00,North,0,0.0,0.0,11,0.00,,,0.00,VWS V13.01,2013-04-11 11:34:00,
2013-04-11 07:39:00,73.2,15.6,0.00,North,0,0.0,0.0,11,0.00,,,0.00,VWS V13.01,2013-04-11 11:39:00,
2013-04-11 07:44:00,73.2,15.6,0.00,North,0,0.0,0.0,11,0.00,,,0.00,VWS V13.01,2013-04-11 11:44:00,
2013-04-11 07:49:00,73.2,15.6,0.00,North,0,0.0,0.0,11,0.00,,,0.00,VWS V13.01,2013-04-11 11:49:00,
2013-04-11 07:54:00,73.4,15.7,0.00,North,0,0.0,0.0,11,0.00,,,0.00,VWS V13.01,2013-04-11 11:54:00,
2013-04-11 07:59:00,73.4,15.7,0.00,North,0,0.0,0.0,11,0.00,,,0.00,VWS V13.01,2013-04-11 11:59:00,
2013-04-11 08:04:00,73.4,15.7,0.00,North,0,0.0,0.0,11,0.00,,,0.00,VWS V13.01,2013-04-11 12:04:00,
2013-04-11 08:09:00,73.4,15.7,0.00,North,0,0.0,0.0,11,0.00,,,0.00,VWS V13.01,2013-04-11 12:09:00,
2013-04-11 08:14:00,73.2,15.6,0.00,North,0,0.0,0.0,11,0.00,,,0.00,VWS V13.01,2013-04-11 12:14:00,
2013-04-11 08:19:00,73.2,15.6,0.00,North,0,0.0,0.0,11,0.00,,,0.00,VWS V13.01,2013-04-11 12:19:00,
2013-04-11 08:24:00,73.0,15.5,0.00,North,0,0.0,0.0,11,0.00,,,0.00,VWS V13.01,2013-04-11 12:24:00,
2013-04-11 08:29:00,73.0,15.5,0.00,North,0,0.0,0.0,11,0.00,,,0.00,VWS V13.01,2013-04-11 12:29:00,
2013-04-11 08:34:00,73.0,15.5,0.00,North,0,0.0,0.0,11,0.00,,,0.00,VWS V13.01,2013-04-11 12:34:00,
2013-04-11 08:39:00,73.0,15.5,0.00,North,0,0.0,0.0,11,0.00,,,0.00,VWS V13.01,2013-04-11 12:39:00,
2013-04-11 08:44:00,73.0,15.5,0.00,North,0,0.0,0.0,11,0.00,,,0.00,VWS V13.01,2013-04-11 12:44:00,
2013-04-11 08:49:00,73.2,15.6,0.00,North,0,0.0,0.0,11,0.00,,,0.00,VWS V13.01,2013-04-11 12:49:00,
2013-04-11 08:54:00,73.2,15.6,0.00,North,0,0.0,0.0,11,0.00,,,0.00,VWS V13.01,2013-04-11 12:54:00,
2013-04-11 08:59:00,73.2,15.6,0.00,North,0,0.0,0.0,11,0.00,,,0.00,VWS V13.01,2013-04-11 12:59:00,
2013-04-11 09:04:00,73.4,15.7,0.00,North,0,0.0,0.0,11,0.00,,,0.00,VWS V13.01,2013-04-11 13:04:00,
2013-04-11 09:09:00,73.4,15.7,0.00,North,0,0.0,0.0,11,0.00,,,0.00,VWS V13.01,2013-04-11 13:09:00,
2013-04-11 09:14:00,73.6,15.9,0.00,North,0,0.0,0.0,11,0.00,,,0.00,VWS V13.01,2013-04-11 13:14:00,
2013-04-11 09:19:00,73.6,15.9,0.00,North,0,0.0,0.0,11,0.00,,,0.00,VWS V13.01,2013-04-11 13:19:00,
2013-04-11 09:24:00,73.6,15.9,0.00,North,0,0.0,0.0,11,0.00,,,0.00,VWS V13.01,2013-04-11 13:24:00,
2013-04-11 09:29:00,73.6,15.9,0.00,North,0,0.0,0.0,11,0.00,,,0.00,VWS V13.01,2013-04-11 13:29:00,
2013-04-11 09:34:00,73.8,16.0,0.00,North,0,0.0,0.0,11,0.00,,,0.00,VWS V13.01,2013-04-11 13:34:00,
2013-04-11 09:39:00,73.8,16.0,0.00,North,0,0.0,0.0,11,0.00,,,0.00,VWS V13.01,2013-04-11 13:39:00,
2013-04-11 09:44:00,73.9,16.1,0.00,North,0,0.0,0.0,11,0.00,,,0.00,VWS V13.01,2013-04-11 13:44:00,
2013-04-11 09:49:00,74.1,16.3,0.00,North,0,0.0,0.0,11,0.00,,,0.00,VWS V13.01,2013-04-11 13:49:00,
2013-04-11 09:54:00,74.3,16.4,0.00,North,0,0.0,0.0,11,0.00,,,0.00,VWS V13.01,2013-04-11 13:54:00,
2013-04-11 09:59:00,74.5,16.6,0.00,North,0,0.0,0.0,11,0.00,,,0.00,VWS V13.01,2013-04-11 13:59:00,
2013-04-11 10:04:00,74.5,16.6,0.00,North,0,0.0,0.0,11,0.00,,,0.00,VWS V13.01,2013-04-11 14:04:00,
2013-04-11 10:09:00,74.7,16.7,0.00,North,0,0.0,0.0,11,0.00,,,0.00,VWS V13.01,2013-04-11 14:09:00,
2013-04-11 10:14:00,74.8,16.9,0.00,North,0,0.0,0.0,11,0.00,,,0.00,VWS V13.01,2013-04-11 14:14:00,
2013-04-11 10:19:00,74.8,16.9,0.00,North,0,0.0,0.0,11,0.00,,,0.00,VWS V13.01,2013-04-11 14:19:00,
2013-04-11 10:24:00,75.0,17.0,0.00,North,0,0.0,0.0,11,0.00,,,0.00,VWS V13.01,2013-04-11 14:24:00,
2013-04-11 10:29:00,74.8,16.9,0.00,North,0,0.0,0.0,11,0.00,,,0.00,VWS V13.01,2013-04-11 14:29:00,
2013-04-11 10:34:00,74.8,16.9,0.00,North,0,0.0,0.0,11,0.00,,,0.00,VWS V13.01,2013-04-11 14:34:00,
2013-04-11 10:39:00,74.8,16.9,0.00,North,0,0.0,0.0,11,0.00,,,0.00,VWS V13.01,2013-04-11 14:39:00,
2013-04-11 10:44:00,75.0,17.0,0.00,North,0,0.0,0.0,11,0.00,,,0.00,VWS V13.01,2013-04-11 14:44:00,
2013-04-11 10:49:00,75.0,17.0,0.00,North,0,0.0,0.0,11,0.00,,,0.00,VWS V13.01,2013-04-11 14:49:00,
2013-04-11 10:54:00,75.2,14.9,0.00,North,0,0.0,0.0,10,0.00,,,0.00,VWS V13.01,2013-04-11 14:54:00,
2013-04-11 10:59:00,75.4,15.1,0.00,North,0,0.0,0.0,10,0.00,,,0.00,VWS V13.01,2013-04-11 14:59:00,
2013-04-11 11:04:00,75.6,15.2,0.00,North,0,0.0,0.0,10,0.00,,,0.00,VWS V13.01,2013-04-11 15:04:00,
2013-04-11 11:09:00,75.7,15.4,0.00,North,0,0.0,0.0,10,0.00,,,0.00,VWS V13.01,2013-04-11 15:09:00,
2013-04-11 11:14:00,75.9,15.5,0.00,North,0,0.0,0.0,10,0.00,,,0.00,VWS V13.01,2013-04-11 15:14:00,
2013-04-11 11:19:00,76.1,15.6,0.00,North,0,0.0,0.0,10,0.00,,,0.00,VWS V13.01,2013-04-11 15:19:00,
2013-04-11 11:24:00,76.3,15.8,0.00,North,0,0.0,0.0,10,0.00,,,0.00,VWS V13.01,2013-04-11 15:24:00,
2013-04-11 11:30:00,76.5,15.9,0.00,North,0,0.0,0.0,10,0.00,,,0.00,VWS V13.01,2013-04-11 15:30:00,
2013-04-11 11:35:00,76.5,15.9,0.00,North,0,0.0,0.0,10,0.00,,,0.00,VWS V13.01,2013-04-11 15:35:00,
2013-04-11 11:40:00,76.6,16.0,0.00,North,0,0.0,0.0,10,0.00,,,0.00,VWS V13.01,2013-04-11 15:40:00,
2013-04-11 11:45:00,76.5,15.9,0.00,North,0,0.0,0.0,10,0.00,,,0.00,VWS V13.01,2013-04-11 15:45:00,
2013-04-11 11:50:00,76.5,15.9,0.00,North,0,0.0,0.0,10,0.00,,,0.00,VWS V13.01,2013-04-11 15:50:00,
2013-04-11 11:55:00,76.5,15.9,0.00,North,0,0.0,0.0,10,0.00,,,0.00,VWS V13.01,2013-04-11 15:55:00,
2013-04-11 12:00:00,76.5,15.9,0.00,North,0,0.0,0.0,10,0.00,,,0.00,VWS V13.01,2013-04-11 16:00:00,
2013-04-11 12:05:00,76.5,15.9,0.00,North,0,0.0,0.0,10,0.00,,,0.00,VWS V13.01,2013-04-11 16:05:00,
2013-04-11 12:10:00,76.5,15.9,0.00,North,0,0.0,0.0,10,0.00,,,0.00,VWS V13.01,2013-04-11 16:10:00,
2013-04-11 12:15:00,76.5,15.9,0.00,North,0,0.0,0.0,10,0.00,,,0.00,VWS V13.01,2013-04-11 16:15:00,
2013-04-11 12:20:00,76.5,15.9,0.00,North,0,0.0,0.0,10,0.00,,,0.00,VWS V13.01,2013-04-11 16:20:00,
2013-04-11 12:25:00,76.6,16.0,0.00,North,0,0.0,0.0,10,0.00,,,0.00,VWS V13.01,2013-04-11 16:25:00,
2013-04-11 12:30:00,76.6,16.0,0.00,North,0,0.0,0.0,10,0.00,,,0.00,VWS V13.01,2013-04-11 16:30:00,
2013-04-11 12:35:00,76.6,16.0,0.00,North,0,0.0,0.0,10,0.00,,,0.00,VWS V13.01,2013-04-11 16:35:00,
2013-04-11 12:40:00,76.8,16.2,0.00,North,0,0.0,0.0,10,0.00,,,0.00,VWS V13.01,2013-04-11 16:40:00,
2013-04-11 12:45:00,77.2,16.5,0.00,North,0,0.0,0.0,10,0.00,,,0.00,VWS V13.01,2013-04-11 16:45:00,
2013-04-11 12:50:00,77.7,16.9,0.00,North,0,0.0,0.0,10,0.00,,,0.00,VWS V13.01,2013-04-11 16:50:00,
2013-04-11 12:55:00,78.6,17.5,0.00,North,0,0.0,0.0,10,0.00,,,0.00,VWS V13.01,2013-04-11 16:55:00,
2013-04-11 13:00:00,78.6,17.5,0.00,North,0,0.0,0.0,10,0.00,,,0.00,VWS V13.01,2013-04-11 17:00:00,
2013-04-11 13:05:00,78.4,17.4,0.00,North,0,0.0,0.0,10,0.00,,,0.00,VWS V13.01,2013-04-11 17:05:00,
2013-04-11 13:10:00,78.4,17.4,0.00,North,0,0.0,0.0,10,0.00,,,0.00,VWS V13.01,2013-04-11 17:10:00,
2013-04-11 13:15:00,78.6,17.5,0.00,North,0,0.0,0.0,10,0.00,,,0.00,VWS V13.01,2013-04-11 17:15:00,
2013-04-11 13:21:00,79.3,18.1,0.00,North,0,0.0,0.0,10,0.00,,,0.00,VWS V13.01,2013-04-11 17:21:00,
2013-04-11 13:27:00,79.7,18.4,0.00,North,0,0.0,0.0,10,0.00,,,0.00,VWS V13.01,2013-04-11 17:27:00,
2013-04-11 13:32:00,79.9,18.5,0.00,North,0,0.0,0.0,10,0.00,,,0.00,VWS V13.01,2013-04-11 17:32:00,
2013-04-11 13:37:00,79.9,18.5,0.00,North,0,0.0,0.0,10,0.00,,,0.00,VWS V13.01,2013-04-11 17:37:00,
2013-04-11 13:42:00,80.1,18.6,0.00,North,0,0.0,0.0,10,0.00,,,0.00,VWS V13.01,2013-04-11 17:42:00,
2013-04-11 13:47:00,80.2,18.8,0.00,North,0,0.0,0.0,10,0.00,,,0.00,VWS V13.01,2013-04-11 17:47:00,
2013-04-11 13:52:00,80.6,16.6,0.00,North,0,0.0,0.0,9,0.00,,,0.00,VWS V13.01,2013-04-11 17:52:00,
2013-04-11 13:57:00,80.8,16.7,0.00,North,0,0.0,0.0,9,0.00,,,0.00,VWS V13.01,2013-04-11 17:57:00,
2013-04-11 14:02:00,80.6,16.6,0.00,North,0,0.0,0.0,9,0.00,,,0.00,VWS V13.01,2013-04-11 18:02:00,
2013-04-11 14:07:00,80.6,16.6,0.00,North,0,0.0,0.0,9,0.00,,,0.00,VWS V13.01,2013-04-11 18:07:00,
2013-04-11 14:13:00,80.6,16.6,0.00,North,0,0.0,0.0,9,0.00,,,0.00,VWS V13.01,2013-04-11 18:13:00,
2013-04-11 14:18:00,81.0,16.9,0.00,North,0,0.0,0.0,9,0.00,,,0.00,VWS V13.01,2013-04-11 18:18:00,
2013-04-11 14:23:00,81.1,17.0,0.00,North,0,0.0,0.0,9,0.00,,,0.00,VWS V13.01,2013-04-11 18:23:00,
2013-04-11 14:28:00,80.8,16.7,0.00,North,0,0.0,0.0,9,0.00,,,0.00,VWS V13.01,2013-04-11 18:28:00,
2013-04-11 14:33:00,81.3,17.1,0.00,North,0,0.0,0.0,9,0.00,,,0.00,VWS V13.01,2013-04-11 18:33:00,
2013-04-11 14:38:00,82.2,17.8,0.00,North,0,0.0,0.0,9,0.00,,,0.00,VWS V13.01,2013-04-11 18:38:00,
2013-04-11 14:43:00,82.0,17.7,0.00,North,0,0.0,0.0,9,0.00,,,0.00,VWS V13.01,2013-04-11 18:43:00,
2013-04-11 14:48:00,81.9,17.6,0.00,North,0,0.0,0.0,9,0.00,,,0.00,VWS V13.01,2013-04-11 18:48:00,
2013-04-11 14:53:00,81.9,17.6,0.00,North,0,0.0,0.0,9,0.00,,,0.00,VWS V13.01,2013-04-11 18:53:00,
2013-04-11 14:58:00,81.9,17.6,0.00,North,0,0.0,0.0,9,0.00,,,0.00,VWS V13.01,2013-04-11 18:58:00,
2013-04-11 15:03:00,81.9,17.6,0.00,North,0,0.0,0.0,9,0.00,,,0.00,VWS V13.01,2013-04-11 19:03:00,
2013-04-11 15:08:00,81.7,17.4,0.00,North,0,0.0,0.0,9,0.00,,,0.00,VWS V13.01,2013-04-11 19:08:00,
2013-04-11 15:13:00,81.7,17.4,0.00,North,0,0.0,0.0,9,0.00,,,0.00,VWS V13.01,2013-04-11 19:13:00,
2013-04-11 15:18:00,81.7,17.4,0.00,North,0,0.0,0.0,9,0.00,,,0.00,VWS V13.01,2013-04-11 19:18:00,
2013-04-11 15:23:00,81.7,17.4,0.00,North,0,0.0,0.0,9,0.00,,,0.00,VWS V13.01,2013-04-11 19:23:00,
2013-04-11 15:28:00,81.7,17.4,0.00,North,0,0.0,0.0,9,0.00,,,0.00,VWS V13.01,2013-04-11 19:28:00,
2013-04-11 15:33:00,81.5,17.3,0.00,North,0,0.0,0.0,9,0.00,,,0.00,VWS V13.01,2013-04-11 19:33:00,
2013-04-11 15:38:00,81.3,17.1,0.00,North,0,0.0,0.0,9,0.00,,,0.00,VWS V13.01,2013-04-11 19:38:00,
2013-04-11 15:43:00,81.1,17.0,0.00,North,0,0.0,0.0,9,0.00,,,0.00,VWS V13.01,2013-04-11 19:43:00,
2013-04-11 15:48:00,81.0,16.9,0.00,North,0,0.0,0.0,9,0.00,,,0.00,VWS V13.01,2013-04-11 19:48:00,
2013-04-11 15:53:00,80.8,16.7,0.00,North,0,0.0,0.0,9,0.00,,,0.00,VWS V13.01,2013-04-11 19:53:00,
2013-04-11 15:58:00,80.8,16.7,0.00,North,0,0.0,0.0,9,0.00,,,0.00,VWS V13.01,2013-04-11 19:58:00,
2013-04-11 16:03:00,80.6,16.6,0.00,North,0,0.0,0.0,9,0.00,,,0.00,VWS V13.01,2013-04-11 20:03:00,
2013-04-11 16:08:00,79.9,18.5,0.00,North,0,0.0,0.0,10,0.00,,,0.00,VWS V13.01,2013-04-11 20:08:00,
2013-04-11 16:13:00,78.4,17.4,0.00,North,0,0.0,0.0,10,0.00,,,0.00,VWS V13.01,2013-04-11 20:13:00,
2013-04-11 16:18:00,77.4,16.6,0.00,North,0,0.0,0.0,10,0.00,,,0.00,VWS V13.01,2013-04-11 20:18:00,
2013-04-11 16:23:00,77.0,16.3,0.00,North,0,0.0,0.0,10,0.00,,,0.00,VWS V13.01,2013-04-11 20:23:00,
2013-04-11 16:28:00,77.2,16.5,0.00,North,0,0.0,0.0,10,0.00,,,0.00,VWS V13.01,2013-04-11 20:28:00,
2013-04-11 16:33:00,77.4,16.6,0.00,North,0,0.0,0.0,10,0.00,,,0.00,VWS V13.01,2013-04-11 20:33:00,
2013-04-11 16:38:00,77.7,16.9,0.00,North,0,0.0,0.0,10,0.00,,,0.00,VWS V13.01,2013-04-11 20:38:00,
2013-04-11 16:43:00,78.3,17.3,0.00,North,0,0.0,0.0,10,0.00,,,0.00,VWS V13.01,2013-04-11 20:43:00,
2013-04-11 16:48:00,78.8,17.7,0.00,North,0,0.0,0.0,10,0.00,,,0.00,VWS V13.01,2013-04-11 20:48:00,
2013-04-11 16:53:00,79.3,18.1,0.00,North,0,0.0,0.0,10,0.00,,,0.00,VWS V13.01,2013-04-11 20:53:00,
2013-04-11 16:58:00,79.7,18.4,0.00,North,0,0.0,0.0,10,0.00,,,0.00,VWS V13.01,2013-04-11 20:58:00,
2013-04-11 17:03:00,80.1,18.6,0.00,North,0,0.0,0.0,10,0.00,,,0.00,VWS V13.01,2013-04-11 21:03:00,
2013-04-11 17:08:00,80.8,16.7,0.00,North,0,0.0,0.0,9,0.00,,,0.00,VWS V13.01,2013-04-11 21:08:00,
2013-04-11 17:13:00,81.3,17.1,0.00,North,0,0.0,0.0,9,0.00,,,0.00,VWS V13.01,2013-04-11 21:13:00,
2013-04-11 17:18:00,81.9,17.6,0.00,North,0,0.0,0.0,9,0.00,,,0.00,VWS V13.01,2013-04-11 21:18:00,
2013-04-11 17:24:00,82.0,17.7,0.00,North,0,0.0,0.0,9,0.00,,,0.00,VWS V13.01,2013-04-11 21:24:00,
2013-04-11 17:29:00,82.0,17.7,0.00,North,0,0.0,0.0,9,0.00,,,0.00,VWS V13.01,2013-04-11 21:29:00,
2013-04-11 17:34:00,82.2,17.8,0.00,North,0,0.0,0.0,9,0.00,,,0.00,VWS V13.01,2013-04-11 21:34:00,
2013-04-11 17:39:00,82.4,18.0,0.00,North,0,0.0,0.0,9,0.00,,,0.00,VWS V13.01,2013-04-11 21:39:00,
2013-04-11 17:44:00,82.4,18.0,0.00,North,0,0.0,0.0,9,0.00,,,0.00,VWS V13.01,2013-04-11 21:44:00,
2013-04-11 17:49:00,82.2,17.8,0.00,North,0,0.0,0.0,9,0.00,,,0.00,VWS V13.01,2013-04-11 21:49:00,
2013-04-11 17:54:00,82.2,17.8,0.00,North,0,0.0,0.0,9,0.00,,,0.00,VWS V13.01,2013-04-11 21:54:00,
2013-04-11 17:59:00,82.2,17.8,0.00,North,0,0.0,0.0,9,0.00,,,0.00,VWS V13.01,2013-04-11 21:59:00,
2013-04-11 18:04:00,82.2,17.8,0.00,North,0,0.0,0.0,9,0.00,,,0.00,VWS V13.01,2013-04-11 22:04:00,
2013-04-11 18:09:00,82.2,17.8,0.00,North,0,0.0,0.0,9,0.00,,,0.00,VWS V13.01,2013-04-11 22:09:00,
2013-04-11 18:14:00,82.2,17.8,0.00,North,0,0.0,0.0,9,0.00,,,0.00,VWS V13.01,2013-04-11 22:14:00,
2013-04-11 18:19:00,82.2,17.8,0.00,North,0,0.0,0.0,9,0.00,,,0.00,VWS V13.01,2013-04-11 22:19:00,
2013-04-11 18:24:00,82.0,17.7,0.00,North,0,0.0,0.0,9,0.00,,,0.00,VWS V13.01,2013-04-11 22:24:00,
2013-04-11 18:29:00,82.0,17.7,0.00,North,0,0.0,0.0,9,0.00,,,0.00,VWS V13.01,2013-04-11 22:29:00,
2013-04-11 18:34:00,82.0,17.7,0.00,North,0,0.0,0.0,9,0.00,,,0.00,VWS V13.01,2013-04-11 22:34:00,
2013-04-11 18:39:00,82.0,17.7,0.00,North,0,0.0,0.0,9,0.00,,,0.00,VWS V13.01,2013-04-11 22:39:00,
2013-04-11 18:44:00,81.9,17.6,0.00,North,0,0.0,0.0,9,0.00,,,0.00,VWS V13.01,2013-04-11 22:44:00,
2013-04-11 18:49:00,81.9,17.6,0.00,North,0,0.0,0.0,9,0.00,,,0.00,VWS V13.01,2013-04-11 22:49:00,
2013-04-11 18:54:00,73.2,21.2,0.00,North,0,0.0,0.0,14,0.00,,,0.00,VWS V13.01,2013-04-11 22:54:00,
2013-04-11 18:59:00,66.6,33.3,0.00,North,0,0.0,0.0,29,0.04,,,0.04,VWS V13.01,2013-04-11 22:59:00,
2013-04-11 19:04:00,63.7,35.5,0.00,North,0,0.0,0.0,35,0.04,,,0.04,VWS V13.01,2013-04-11 23:04:00,
2013-04-11 19:09:00,62.6,38.0,0.00,North,0,0.0,0.0,40,0.04,,,0.04,VWS V13.01,2013-04-11 23:09:00,
2013-04-11 19:14:00,61.9,39.8,0.00,North,0,0.0,0.0,44,0.04,,,0.04,VWS V13.01,2013-04-11 23:14:00,
2013-04-11 19:19:00,61.5,40.0,0.00,North,0,0.0,0.0,45,0.08,,,0.08,VWS V13.01,2013-04-11 23:19:00,
2013-04-11 19:24:00,61.3,41.0,0.00,North,0,0.0,0.0,47,0.08,,,0.08,VWS V13.01,2013-04-11 23:24:00,
2013-04-11 19:29:00,61.0,40.6,0.00,North,0,0.0,0.0,47,0.08,,,0.08,VWS V13.01,2013-04-11 23:29:00,
2013-04-11 19:34:00,61.0,41.2,0.00,North,0,0.0,0.0,48,0.08,,,0.08,VWS V13.01,2013-04-11 23:34:00,
2013-04-11 19:39:00,60.8,42.1,0.00,North,0,0.0,0.0,50,0.12,,,0.12,VWS V13.01,2013-04-11 23:39:00,
2013-04-11 19:44:00,60.6,42.9,0.00,North,0,0.0,0.0,52,0.16,,,0.16,VWS V13.01,2013-04-11 23:44:00,
2013-04-11 19:49:00,60.6,42.9,0.00,North,0,0.0,0.0,52,0.16,,,0.16,VWS V13.01,2013-04-11 23:49:00,
2013-04-11 19:54:00,60.6,42.9,0.00,North,0,0.0,0.0,52,0.16,,,0.16,VWS V13.01,2013-04-11 23:54:00,
2013-04-11 19:59:00,60.4,43.2,0.00,North,0,0.0,0.0,53,0.12,,,0.16,VWS V13.01,2013-04-11 23:59:00,
2013-04-11 20:04:00,60.3,44.0,0.00,North,0,0.0,0.0,55,0.16,,,0.20,VWS V13.01,2013-04-12 00:04:00,
2013-04-11 20:09:00,60.3,44.0,0.00,North,0,0.0,0.0,55,0.16,,,0.20,VWS V13.01,2013-04-12 00:09:00,
2013-04-11 20:14:00,60.1,44.3,0.00,North,0,0.0,0.0,56,0.20,,,0.24,VWS V13.01,2013-04-12 00:14:00,
2013-04-11 20:19:00,60.1,44.8,0.00,North,0,0.0,0.0,57,0.16,,,0.24,VWS V13.01,2013-04-12 00:19:00,
2013-04-11 20:24:00,60.1,44.8,0.00,North,0,0.0,0.0,57,0.16,,,0.24,VWS V13.01,2013-04-12 00:24:00,
2013-04-11 20:29:00,59.9,44.7,0.00,North,0,0.0,0.0,57,0.16,,,0.24,VWS V13.01,2013-04-12 00:29:00,
2013-04-11 20:34:00,59.9,44.7,0.00,North,0,0.0,0.0,57,0.16,,,0.24,VWS V13.01,2013-04-12 00:34:00,
2013-04-11 20:39:00,59.9,45.1,0.00,North,0,0.0,0.0,58,0.16,,,0.28,VWS V13.01,2013-04-12 00:39:00,
2013-04-11 20:44:00,59.9,44.7,0.00,North,0,0.0,0.0,57,0.16,,,0.28,VWS V13.01,2013-04-12 00:44:00,
2013-04-11 20:49:00,59.9,44.7,0.00,North,0,0.0,0.0,57,0.12,,,0.28,VWS V13.01,2013-04-12 00:49:00,
2013-04-11 20:54:00,59.9,44.7,0.00,North,0,0.0,0.0,57,0.12,,,0.28,VWS V13.01,2013-04-12 00:54:00,
2013-04-11 20:59:00,59.9,45.1,0.00,North,0,0.0,0.0,58,0.12,,,0.31,VWS V13.01,2013-04-12 00:59:00,
2013-04-11 21:04:00,59.9,45.5,0.00,North,0,0.0,0.0,59,0.12,,,0.31,VWS V13.01,2013-04-12 01:04:00,
2013-04-11 21:09:00,59.7,46.3,0.00,North,0,0.0,0.0,61,0.16,,,0.39,VWS V13.01,2013-04-12 01:09:00,
2013-04-11 21:14:00,59.7,46.7,0.00,North,0,0.0,0.0,62,0.16,,,0.39,VWS V13.01,2013-04-12 01:14:00,
2013-04-11 21:19:00,59.7,46.7,0.00,North,0,0.0,0.0,62,0.20,,,0.43,VWS V13.01,2013-04-12 01:19:00,
2013-04-11 21:24:00,59.5,47.0,0.00,North,0,0.0,0.0,63,0.28,,,0.51,VWS V13.01,2013-04-12 01:24:00,
2013-04-11 21:29:00,59.5,47.0,0.00,North,0,0.0,0.0,63,0.28,,,0.51,VWS V13.01,2013-04-12 01:29:00,
2013-04-11 21:34:00,59.5,47.4,0.00,North,0,0.0,0.0,64,0.31,,,0.55,VWS V13.01,2013-04-12 01:34:00,
2013-04-11 21:39:00,59.5,47.8,0.00,North,0,0.0,0.0,65,0.31,,,0.55,VWS V13.01,2013-04-12 01:39:00,
2013-04-11 21:44:00,59.4,48.0,0.00,North,0,0.0,0.0,66,0.28,,,0.55,VWS V13.01,2013-04-12 01:44:00,
2013-04-11 21:49:00,59.4,48.0,0.00,North,0,0.0,0.0,66,0.31,,,0.59,VWS V13.01,2013-04-12 01:49:00,
2013-04-11 21:54:00,59.4,48.0,0.00,North,0,0.0,0.0,66,0.31,,,0.59,VWS V13.01,2013-04-12 01:54:00,
2013-04-11 21:59:00,59.4,48.4,0.00,North,0,0.0,0.0,67,0.31,,,0.59,VWS V13.01,2013-04-12 01:59:00,
2013-04-11 22:04:00,59.2,48.2,0.00,North,0,0.0,0.0,67,0.28,,,0.59,VWS V13.01,2013-04-12 02:04:00,
2013-04-11 22:09:00,59.2,48.2,0.00,North,0,0.0,0.0,67,0.24,,,0.59,VWS V13.01,2013-04-12 02:09:00,
2013-04-11 22:14:00,59.2,48.2,0.00,North,0,0.0,0.0,67,0.20,,,0.59,VWS V13.01,2013-04-12 02:14:00,
2013-04-11 22:19:00,59.2,48.2,0.00,North,0,0.0,0.0,67,0.16,,,0.59,VWS V13.01,2013-04-12 02:19:00,
2013-04-11 22:24:00,59.2,48.2,0.00,North,0,0.0,0.0,67,0.20,,,0.63,VWS V13.01,2013-04-12 02:24:00,
2013-04-11 22:29:00,59.2,47.8,0.00,North,0,0.0,0.0,66,0.12,,,0.63,VWS V13.01,2013-04-12 02:29:00,
2013-04-11 22:34:00,59.4,47.6,0.00,North,0,0.0,0.0,65,0.12,,,0.63,VWS V13.01,2013-04-12 02:34:00,
2013-04-11 22:39:00,59.4,46.3,0.00,North,0,0.0,0.0,62,0.08,,,0.63,VWS V13.01,2013-04-12 02:39:00,
2013-04-11 22:44:00,59.4,45.9,0.00,North,0,0.0,0.0,61,0.08,,,0.63,VWS V13.01,2013-04-12 02:44:00,
2013-04-11 22:49:00,59.4,46.3,0.00,North,0,0.0,0.0,62,0.08,,,0.63,VWS V13.01,2013-04-12 02:49:00,
2013-04-11 22:54:00,59.4,45.9,0.00,North,0,0.0,0.0,61,0.04,,,0.63,VWS V13.01,2013-04-12 02:54:00,
2013-04-11 22:59:00,59.2,45.8,0.00,North,0,0.0,0.0,61,0.04,,,0.63,VWS V13.01,2013-04-12 02:59:00,
2013-04-11 23:00:00,59.9,44.7,0.00,North,0,0.0,0.0,57,0.04,,,0.00,VWS V13.01,2013-04-12 03:00:00,
2013-04-11 23:01:00,59.9,44.2,0.00,North,0,0.0,0.0,56,0.00,,,0.67,VWS V13.01,2013-04-12 03:01:00,
2013-04-11 23:02:00,59.9,44.2,0.00,North,0,0.0,0.0,56,0.00,,,0.67,VWS V13.01,2013-04-12 03:02:00,
2013-04-11 23:03:00,59.9,44.2,0.00,North,0,0.0,0.0,56,0.00,,,0.67,VWS V13.01,2013-04-12 03:03:00,
2013-04-11 23:04:00,59.4,45.5,0.00,North,0,0.0,0.0,60,0.08,,,0.67,VWS V13.01,2013-04-12 03:04:00,
2013-04-11 23:05:00,59.9,44.2,0.00,North,0,0.0,0.0,56,0.00,,,0.67,VWS V13.01,2013-04-12 03:05:00,
2013-04-11 23:06:00,59.9,43.7,0.00,North,0,0.0,0.0,55,0.00,,,0.67,VWS V13.01,2013-04-12 03:06:00,
2013-04-11 23:09:00,59.7,44.9,0.00,North,0,0.0,0.0,58,0.08,,,0.67,VWS V13.01,2013-04-12 03:09:00,
2013-04-11 23:14:00,59.9,44.2,0.00,North,0,0.0,0.0,56,0.08,,,0.67,VWS V13.01,2013-04-12 03:14:00,
2013-04-11 23:19:00,59.7,44.5,0.00,North,0,0.0,0.0,57,0.08,,,0.67,VWS V13.01,2013-04-12 03:19:00,
2013-04-11 23:24:00,59.5,45.2,0.00,North,0,0.0,0.0,59,0.08,,,0.67,VWS V13.01,2013-04-12 03:24:00,
2013-04-11 23:29:00,59.7,45.8,0.00,North,0,0.0,0.0,60,0.04,,,0.67,VWS V13.01,2013-04-12 03:29:00,
2013-04-11 23:34:00,59.7,45.4,0.00,North,0,0.0,0.0,59,0.04,,,0.67,VWS V13.01,2013-04-12 03:34:00,
2013-04-11 23:39:00,59.7,45.4,0.00,North,0,0.0,0.0,59,0.04,,,0.67,VWS V13.01,2013-04-12 03:39:00,
2013-04-11 23:44:00,59.7,44.9,0.00,North,0,0.0,0.0,58,0.04,,,0.67,VWS V13.01,2013-04-12 03:44:00,
2013-04-11 23:49:00,59.7,44.9,0.00,North,0,0.0,0.0,58,0.04,,,0.67,VWS V13.01,2013-04-12 03:49:00,
2013-04-11 23:54:00,59.7,44.9,0.00,North,0,0.0,0.0,58,0.04,,,0.67,VWS V13.01,2013-04-12 03:54:00,
2013-04-11 23:59:00,59.9,44.7,0.00,North,0,0.0,0.0,57,0.04,,,0.67,VWS V13.01,2013-04-12 03:59:00,